Location: Poughquag
(41.6090°N, 73.6820°W)
Time: 09:11:04
(UTC-04:00)

Altair - Visible Passes

Search period start: 14 October 2019 00:00
Search period end: 24 October 2019 00:00
Orbit: 1501 x 1683 km, 47.2° (Epoch: 14 October)

Date Brightness Start Highest point End Pass type
(mag) Time Alt. Az. Time Alt. Az. Time Alt. Az.
14 Oct 7.8 19:00:52 10° WNW 19:10:58 81° SSW 19:21:09 10° SE visible
14 Oct 8.9 21:06:30 10° WNW 21:14:53 31° SW 21:20:07 20° S visible
15 Oct 7.8 18:35:39 10° WNW 18:45:45 84° SSW 18:55:58 10° ESE visible
15 Oct 8.8 20:41:08 10° WNW 20:49:48 34° SW 20:57:03 14° S visible
16 Oct 8.8 20:15:49 10° WNW 20:24:42 37° SW 20:33:36 10° SSE visible
17 Oct 8.7 19:50:30 10° WNW 19:59:35 40° SW 20:08:42 10° SSE visible
18 Oct 8.7 19:25:13 10° WNW 19:34:28 43° SW 19:43:46 10° SSE visible
19 Oct 8.6 18:59:57 10° WNW 19:09:20 46° SW 19:18:49 10° SSE visible
19 Oct 9.9 21:09:55 10° WSW 21:12:17 11° WSW 21:14:39 10° SW visible
20 Oct 8.6 18:34:42 10° WNW 18:44:13 50° SW 18:53:49 10° SSE visible
20 Oct 9.8 20:43:20 10° W 20:47:15 13° WSW 20:51:11 10° SW visible
21 Oct 9.8 20:17:18 10° W 20:22:13 15° WSW 20:27:11 10° SSW visible
22 Oct 9.8 19:51:29 10° W 19:57:11 17° WSW 20:02:56 10° SSW visible
23 Oct 9.8 19:25:49 10° W 19:32:08 19° SW 19:38:32 10° SSW visible
